Location: *
(40.8833°N, 14.8500°E)
Time: 14:30:44
(UTC+00:00)

Daily predictions for brighter satellites

Satellite Brightness Start Highest point End
(mag) Time Altitude Azimuth Time Altitude Azimuth Time Altitude Azimuth
CZ-3B R/B 4.4 17:43:09 10° SSW 17:48:56 75° SE 18:21:57 10° NE
Cosmos 1709 Rocket 4.0 17:47:22 10° N 17:53:32 73° E 17:59:37 10° SSE
STARLINK-1123 3.7 17:49:33 10° NW 17:53:42 75° NE 17:57:50 10° ESE
Cosmos 1544 Rocket 4.0 17:49:38 10° SSW 17:54:01 72° W 17:58:29 10° N
SeaSat 1 2.8 17:49:09 10° NNE 17:54:06 73° WNW 17:59:00 10° SW
TSX-5 4.1 17:53:42 10° NNW 17:58:27 75° WSW 18:02:09 10° SSE
STARLINK-1097 3.6 17:54:30 10° NW 17:58:39 82° NE 18:02:48 10° SE
Cosmos 1626 2.4 17:55:42 10° NNW 17:59:24 75° W 18:03:05 10° S
CZ-4 R/B 2.9 17:56:00 10° SSW 17:59:36 38° W 18:03:13 10° NNW
STARLINK-1099 3.6 17:59:29 10° NW 18:03:38 89° NE 18:07:47 10° SE
Cosmos 292 Rocket 4.0 18:01:01 10° N 18:05:43 53° ENE 18:10:26 10° SE
Cosmos 1939 Rocket 4.2 18:02:02 10° S 18:05:47 43° W 18:09:32 10° NNW
SL-8 R/B 4.1 18:01:53 10° WNW 18:06:35 55° NNE 18:11:11 11° E
STARLINK-1104 3.7 18:04:28 10° NW 18:08:37 84° SW 18:12:45 10° SE
Cosmos 1943 Rocket 2.2 18:03:17 10° NNW 18:08:49 71° ENE 18:14:23 10° SSE
IRS-1A Rocket 4.5 18:03:55 10° SSE 18:09:26 56° ENE 18:15:06 10° N
Cosmos 2369 Rocket 2.4 18:04:52 10° NNW 18:10:28 55° ENE 18:15:59 10° SE
STARLINK-1144 3.7 18:09:28 10° NW 18:13:36 77° SW 18:17:43 10° SE
Cosmos 2084 Rocket 3.7 18:11:14 10° NW 18:15:42 76° WSW 18:20:10 10° SSE
Cosmos 1758 Rocket 4.2 18:12:44 10° N 18:16:43 34° ENE 18:20:39 10° SE
Abrixas rocket 4.2 18:15:04 10° WNW 18:17:21 20° N 18:19:39 10° NE
STARLINK-1103 3.8 18:14:26 10° NW 18:18:33 70° SW 18:22:33 11° SE
Cosmos 1953 2.2 18:16:16 10° S 18:20:11 68° E 18:24:10 10° NNE
Cosmos 2228 3.8 18:17:42 10° SSE 18:21:26 30° E 18:25:13 10° NNE
Cosmos 1992 Rocket 4.0 18:17:41 10° NNW 18:22:54 69° ENE 18:28:04 10° SSE
STARLINK-1101 4.0 18:19:28 10° WNW 18:23:33 63° SW 18:27:21 12° SE
Cosmos 1606 Rocket 4.2 18:19:43 10° SSE 18:23:43 35° E 18:27:46 10° NNE
Cosmos 1818 3.6 18:18:35 10° SSW 18:23:54 61° ESE 18:29:17 10° NE
Cosmos 1437 3.4 18:21:19 10° NNE 18:24:04 30° ENE 18:25:53 17° SE
Cosmos 1908 4.2 18:23:09 10° SSE 18:26:22 26° E 18:29:36 10° NNE
STARLINK-1102 4.1 18:24:25 10° WNW 18:28:29 57° SW 18:32:07 13° SE
Cosmos 1470 4.4 18:26:49 10° SSW 18:30:26 38° WNW 18:34:08 10° N
Cosmos 2263 4.3 18:24:54 10° NNW 18:30:27 58° ENE 18:35:25 13° SE
BREEZE M DEB (TANK) 4.3 18:15:54 10° SW 18:31:04 68° SSE 18:35:14 10° ENE
SL-08 RB Rocket 4.1 18:27:55 10° SE 18:32:09 45° ENE 18:36:31 10° N
Cosmos 1943 3.1 18:26:40 10° SSW 18:32:19 79° ESE 18:38:00 10° NNE
ARGOS Delta rocket 4.3 18:28:02 10° S 18:33:14 76° W 18:38:42 10° NNW
STARLINK-1111 4.3 18:29:25 10° WNW 18:33:27 51° SW 18:36:54 13° SSE
CZ-2C R/B 2.8 18:31:45 10° SSE 18:36:42 78° ENE 18:41:30 10° N
BREEZE-M DEB (TANK) 3.6 18:32:13 10° WSW 18:38:21 42° NNW 18:40:53 10° NE
STARLINK-1073 4.4 18:34:26 10° WNW 18:38:24 46° SW 18:41:41 14° SSE
Aureole 2 Rocket 3.0 18:35:32 10° NNW 18:38:57 55° WSW 18:42:14 10° S
H-2A R/B 2.2 18:41:10 10° S 18:46:26 77° WSW 18:51:35 10° NNW
NOSS 3-4 (A) 4.3 18:47:50 10° NNW 18:54:34 46° NE 18:58:54 24° ESE
NOSS 3-4 (C) 4.3 18:47:56 10° NNW 18:54:40 46° NE 18:58:59 24° ESE
Cosmos 1656 Rocket 3.7 18:50:50 10° NNW 18:56:27 62° ENE 18:59:39 25° SE
Resurs 1-3 3.8 18:55:38 28° SE 18:57:35 49° ENE 19:01:49 10° N
Aureole 1 Rocket 4.2 18:50:20 10° S 18:58:11 65° ESE 19:04:31 10° NNE
CZ-2C R/B 2.7 18:54:29 10° NNE 18:59:29 47° E 19:04:29 10° S
MetOp-A 4.1 18:56:23 19° SSE 19:00:10 65° ENE 19:05:29 10° N
Cosmos 1726 3.0 18:57:12 10° SSW 19:00:50 50° W 19:04:29 10° N
ARGOS 3.5 18:56:50 10° S 19:02:12 68° WSW 19:07:35 10° NNW
SJ-6B 3.3 19:02:02 12° S 19:05:48 62° W 19:09:55 10° NNW
STARLINK-60 2.9 19:03:34 10° SW 19:06:51 84° NW 19:07:54 40° NE
Cosmos 2184 Rocket 4.1 19:02:04 10° N 19:08:22 78° W 19:14:33 10° S
ISS -2.2 19:06:24 10° WNW 19:09:19 27° SW 19:10:16 24° SSW
BREEZE M DEB (TANK) 2.6 19:06:54 10° SSW 19:09:38 50° SE 19:16:15 10° ENE
USA 186 3.7 19:07:55 10° SSW 19:10:56 30° W 19:13:54 10° NNW
DMSP B5D2-2 3.9 19:11:27 10° NNE 19:16:42 83° ESE 19:21:56 10° SSW
Cosmos 2058 Rocket 3.0 19:16:34 27° S 19:18:58 73° E 19:23:29 10° NNE
Resurs 01 Rocket 1.6 19:21:42 54° ESE 19:22:25 64° ENE 19:26:48 10° N
MOS 1 Rocket 3.5 19:19:10 10° NNE 19:24:34 87° E 19:30:01 10° SSW
USA 234 3.1 19:18:36 10° NE 19:25:09 72° SE 19:31:39 10° SW
ATLAS 2AS CENTAUR R/B 2.8 19:19:35 10° NNW 19:27:10 73° NE 19:29:59 39° SE
Cosmos 2181 Rocket 4.3 19:27:29 41° ESE 19:28:22 43° E 19:34:11 10° NNE
Cosmos 1190 Rocket 3.9 19:23:37 10° SSW 19:28:56 88° ESE 19:34:15 10° NNE
Nadezhda 1 Rocket 4.3 19:23:25 10° SSW 19:29:47 71° W 19:36:10 10° N
Cosmos 1140 Rocket 3.3 19:25:05 10° SSW 19:30:17 79° ESE 19:35:28 10° NNE
Cosmos 2154 Rocket 4.0 19:24:14 10° N 19:30:38 82° W 19:34:52 22° S
Spot 2 Rocket 4.0 19:31:32 42° ENE 19:31:41 42° ENE 19:36:28 10° N
Cosmos 1726 Rocket 4.4 19:28:09 10° SSW 19:32:24 49° W 19:36:43 10° N
SL-4 R/B 3.3 19:29:23 10° W 19:32:28 31° NNW 19:33:43 24° NNE
Cosmos 962 Rocket 4.4 19:27:54 10° N 19:34:01 66° E 19:35:47 46° SE
Cosmos 1340 Rocket 2.9 19:32:48 40° SSW 19:34:09 73° W 19:38:13 10° N
ATLAS 5 CENTAUR R/B 1.4 19:32:30 10° SW 19:36:36 81° WNW 19:41:09 10° NNE
SL-8 Rocket 4.2 19:31:54 10° N 19:37:58 47° ENE 19:38:40 45° E
SL-24 R/B - RUBIN 2 4.4 19:34:35 10° SW 19:40:03 75° NW 19:46:17 10° NNE
Cosmos 1300 4.3 19:50:48 28° N 19:50:48 28° N 19:52:43 10° N
SL-8 R/B 4.5 19:44:36 10° WNW 19:49:03 39° SW 19:49:09 39° SW
Cosmos 2366 rocket 4.3 19:43:40 10° N 19:49:24 45° ENE 19:49:24 45° ENE
Cosmos 2369 Rocket 4.4 19:49:56 10° NW 19:53:59 20° W 19:58:00 10° SW
COSMOS 2455 2.8 19:50:17 10° NNW 19:56:16 62° ENE 19:56:39 61° ENE
Cosmos 676 Rocket 3.9 19:56:21 63° SSW 19:57:14 87° WNW 20:02:32 10° NNE
Cosmos 921 Rocket 3.6 19:53:59 10° NNW 19:57:12 52° NNW 19:57:12 52° NNW
ERS-1 Rocket 4.0 20:07:39 35° NNE 20:07:39 35° NNE 20:10:59 10° N
SPOT 1/Viking Rocket 4.0 20:14:31 52° NNE 20:14:31 52° NNE 20:18:37 10° N
MetOp-B 4.3 20:15:08 68° WSW 20:15:11 68° WSW 20:20:32 10° NNW
Cosmos 1461 4.2 20:16:37 10° NW 20:19:51 44° NW 20:19:51 44° NW
CZ-4C R/B 4.4 20:30:04 10° NNW 20:35:24 22° NE 20:37:07 21° NE
Cosmos 1697 Rocket 4.4 20:32:16 10° N 20:35:27 23° NNE 20:35:27 23° NNE
Terra 3.8 20:55:01 25° N 20:55:01 25° N 20:57:00 10° N
Resurs 01 Rocket 4.4 20:59:16 11° W 20:59:19 11° W 21:00:44 10° WNW
Cosmos 1980 Rocket 4.2 21:00:42 10° N 21:03:10 19° NNE 21:03:10 19° NNE
USA 234 4.4 21:01:53 10° NE 21:07:52 40° NNW 21:13:50 10° W
ATLAS 2AS CENTAUR R/B 4.4 21:11:55 10° WNW 21:17:16 22° WSW 21:17:26 22° WSW
CZ-4C R/B 3.9 22:17:46 10° NNW 22:22:17 43° NNW 22:22:17 43° NNW
SL-16 R/B 4.4 23:29:18 23° NE 23:29:18 23° NE 23:32:56 10° N
